Starlink 6058

operational
NORAD ID: 56797 Int'l Des: 2023-078 Owner: SPXS Country: US Constellation: starlink
LEOCIRCULAR

Über Starlink 6058

Beschreibung wird geladen...

Live-Position

3D-Globus wird geladen...

Nächste Überflüge

Höhenverlauf

Altitude vs Time

uPlot chart will show altitude changes over time

Zweizeiliger Elementsatz

1 56797U 23078AG 26062.13243531 .00000196 00000-0 24206-4 0 9996
2 56797 70.0018 1.1608 0002304 271.9733 88.1162 14.98332469151696
Epoch: 3. März 2026 • Age: 29 hours

Aktueller Status

Höhe 588.8 km
Geschwindigkeit 7.57 km/s
Subsatellitenpunkt -48.04°S, 104.07°E
Startdatum 31. Mai 2023
Alter 2.7 years
Typ internet

Technische Details

Klassifizierung Payload
Masse 305.00 kg
Trockenmasse 290.00 kg
Gesamtmasse 305.00 kg
Länge 0.20 m
Durchmesser 2.80 m
Spannweite 9.00 m
Form Box + pan
Hersteller SPXS
Bus-Typ Starlink
Phasenstatus In Orbit
Besitzer/Staat SPXS/US

Große Konstellationen

Loading constellations...